Location: Arbon
(43.0005°N, 0.7472°E)
Time: 09:46:08
(UTC+00:00)

Explorer 7 - Pass Details

Date: 29 November 2020
Orbit: 484 x 678 km, 50.3° (Epoch: 27 January)

Event Time Altitude Azimuth Distance (km) Brightness Sun altitude
Rises 01:12:07 0° 221° (SW) 2,957 - -61.9°
Reaches altitude 10° 01:14:33 10° 215° (SW) 2,024 - -61.6°
Maximum altitude 01:19:01 47° 142° (SE) 813 - -61.0°
Drops below altitude 10° 01:23:16 10° 68° (ENE) 1,921 - -60.4°
Sets 01:25:32 0° 63° (ENE) 2,789 - -60.1°
